Hourly Weather Plovdiv

Today, 11 July, Saturday

Time Temperature Precipitation Wind Pressure Humidity
00:00 +20°C° 0 mm 1 mps 739 mmHg 75%
01:00 +19°C° 0 mm 1 mps 739 mmHg 78%
02:00 +19°C° 0 mm 1 mps 739 mmHg 84%
03:00 +18°C° 0 mm 1 mps 739 mmHg 85%
04:00 +16°C° 0 mm 0 mps 739 mmHg 85%
05:00 +16°C° 0 mm 0 mps 739 mmHg 86%
06:00 +20°C° 0 mm 1 mps 739 mmHg 78%
07:00 +22°C° 0 mm 1 mps 739 mmHg 70%
08:00 +24°C° 0 mm 1 mps 740 mmHg 59%
09:00 +25°C° 0 mm 1 mps 739 mmHg 54%
10:00 +27°C° 0 mm 2 mps 739 mmHg 48%
11:00 +28°C° 0 mm 2 mps 739 mmHg 43%
12:00 +29°C° 0 mm 2 mps 739 mmHg 41%
13:00 +30°C° 0 mm 2 mps 738 mmHg 40%
14:00 +31°C° 0 mm 3 mps 738 mmHg 38%
15:00 +31°C° 0 mm 2 mps 738 mmHg 40%
16:00 +31°C° 0 mm 2 mps 737 mmHg 42%
17:00 +30°C° 0 mm 2 mps 737 mmHg 43%
18:00 +28°C° 0 mm 2 mps 737 mmHg 52%
19:00 +26°C° 0 mm 2 mps 737 mmHg 62%
20:00 +24°C° 0 mm 1 mps 737 mmHg 71%
21:00 +23°C° 0 mm 1 mps 737 mmHg 72%
22:00 +22°C° 0 mm 1 mps 737 mmHg 74%
23:00 +20°C° 0 mm 2 mps 737 mmHg 75%

Tomorrow, 12 July, Sunday

Time Temperature Precipitation Wind Pressure Humidity
00:00 +21°C° 0 mm 1 mps 737 mmHg 78%
01:00 +20°C° 0 mm 1 mps 737 mmHg 80%
02:00 +20°C° 0 mm 1 mps 737 mmHg 82%
03:00 +20°C° 0 mm 1 mps 737 mmHg 83%
04:00 +19°C° 0 mm 1 mps 737 mmHg 83%
05:00 +19°C° 0 mm 1 mps 737 mmHg 83%
06:00 +21°C° 0 mm 1 mps 737 mmHg 76%
07:00 +24°C° 0 mm 1 mps 737 mmHg 68%
08:00 +26°C° 0 mm 2 mps 738 mmHg 60%
09:00 +27°C° 0 mm 2 mps 738 mmHg 56%
10:00 +29°C° 0 mm 2 mps 738 mmHg 52%
11:00 +30°C° 0 mm 3 mps 738 mmHg 48%
12:00 +31°C° 0 mm 3 mps 738 mmHg 46%
13:00 +31°C° 0 mm 3 mps 738 mmHg 45%
14:00 +33°C° 0 mm 3 mps 737 mmHg 43%
15:00 +31°C° 0 mm 3 mps 737 mmHg 46%
16:00 +30°C° 0 mm 3 mps 737 mmHg 49%
17:00 +30°C° 0 mm 3 mps 737 mmHg 51%
18:00 +28°C° 0 mm 3 mps 737 mmHg 60%
19:00 +26°C° 0 mm 2 mps 737 mmHg 70%
20:00 +24°C° 0 mm 2 mps 737 mmHg 79%
21:00 +23°C° 0 mm 2 mps 738 mmHg 80%
22:00 +21°C° 0 mm 2 mps 738 mmHg 82%
23:00 +20°C° 0 mm 2 mps 738 mmHg 83%

Day after tomorrow, 13 July, Monday

Time Temperature Precipitation Wind Pressure Humidity
00:00 +19°C° 0 mm 2 mps 738 mmHg 82%
01:00 +19°C° 0 mm 2 mps 738 mmHg 80%
02:00 +18°C° 0 mm 2 mps 738 mmHg 79%
03:00 +17°C° 0 mm 2 mps 738 mmHg 77%
04:00 +17°C° 0 mm 2 mps 738 mmHg 75%
05:00 +17°C° 0 mm 2 mps 738 mmHg 73%
06:00 +18°C° 0 mm 3 mps 738 mmHg 68%
07:00 +19°C° 0 mm 3 mps 738 mmHg 62%
08:00 +20°C° 0 mm 3 mps 739 mmHg 56%
09:00 +22°C° 0 mm 3 mps 739 mmHg 52%
10:00 +24°C° 0 mm 3 mps 739 mmHg 47%
11:00 +25°C° 0 mm 3 mps 739 mmHg 43%
12:00 +26°C° 0 mm 3 mps 739 mmHg 41%
13:00 +27°C° 0 mm 3 mps 739 mmHg 40%
14:00 +28°C° 0 mm 3 mps 739 mmHg 38%
15:00 +27°C° 0 mm 3 mps 738 mmHg 41%
16:00 +27°C° 0 mm 3 mps 738 mmHg 44%
17:00 +26°C° 0 mm 3 mps 738 mmHg 47%
18:00 +24°C° 0 mm 3 mps 738 mmHg 55%
19:00 +23°C° 0 mm 2 mps 738 mmHg 63%
20:00 +20°C° 0 mm 2 mps 738 mmHg 71%
21:00 +20°C° 0 mm 1 mps 739 mmHg 73%
22:00 +19°C° 0 mm 1 mps 739 mmHg 76%
23:00 +18°C° 0 mm 1 mps 739 mmHg 79%

14 July, Tuesday

Time Temperature Precipitation Wind Pressure Humidity
00:00 +16°C° 0 mm 1 mps 739 mmHg 80%
01:00 +16°C° 0 mm 1 mps 739 mmHg 82%
02:00 +16°C° 0 mm 1 mps 739 mmHg 83%
03:00 +15°C° 0 mm 1 mps 739 mmHg 83%
04:00 +15°C° 0 mm 1 mps 739 mmHg 83%
05:00 +15°C° 0 mm 1 mps 739 mmHg 83%
06:00 +18°C° 0 mm 1 mps 739 mmHg 76%
07:00 +20°C° 0 mm 1 mps 739 mmHg 68%
08:00 +21°C° 0 mm 1 mps 740 mmHg 61%
09:00 +23°C° 0 mm 1 mps 740 mmHg 55%
10:00 +24°C° 0 mm 2 mps 739 mmHg 49%
11:00 +26°C° 0 mm 3 mps 739 mmHg 43%
12:00 +27°C° 0 mm 3 mps 739 mmHg 41%
13:00 +27°C° 0 mm 3 mps 739 mmHg 39%
14:00 +28°C° 0 mm 3 mps 738 mmHg 37%
15:00 +28°C° 0 mm 3 mps 738 mmHg 38%
16:00 +28°C° 0 mm 2 mps 738 mmHg 40%
17:00 +27°C° 0 mm 2 mps 737 mmHg 42%
18:00 +25°C° 0 mm 2 mps 738 mmHg 48%
19:00 +23°C° 0 mm 2 mps 738 mmHg 54%
20:00 +21°C° 0 mm 1 mps 738 mmHg 61%
21:00 +19°C° 0 mm 2 mps 738 mmHg 63%
22:00 +19°C° 0 mm 2 mps 738 mmHg 65%
23:00 +18°C° 0 mm 2 mps 738 mmHg 67%

15 July, Wednesday

Time Temperature Precipitation Wind Pressure Humidity
00:00 +18°C° 0 mm 1 mps 739 mmHg 70%
01:00 +18°C° 0 mm 1 mps 739 mmHg 72%
02:00 +16°C° 0 mm 1 mps 739 mmHg 75%
03:00 +16°C° 0 mm 1 mps 739 mmHg 76%
04:00 +15°C° 0 mm 1 mps 738 mmHg 77%
05:00 +15°C° 0 mm 1 mps 738 mmHg 78%
06:00 +18°C° 0 mm 1 mps 739 mmHg 71%
07:00 +20°C° 0 mm 1 mps 739 mmHg 64%
08:00 +23°C° 0 mm 1 mps 739 mmHg 56%
09:00 +24°C° 0 mm 1 mps 739 mmHg 52%
10:00 +26°C° 0 mm 2 mps 739 mmHg 47%
11:00 +27°C° 0 mm 2 mps 739 mmHg 43%
12:00 +28°C° 0 mm 2 mps 738 mmHg 40%
13:00 +29°C° 0 mm 2 mps 738 mmHg 38%
14:00 +29°C° 0 mm 2 mps 738 mmHg 35%
15:00 +29°C° 0 mm 2 mps 737 mmHg 36%
16:00 +29°C° 0 mm 2 mps 737 mmHg 37%
17:00 +29°C° 0 mm 2 mps 737 mmHg 37%
18:00 +27°C° 0 mm 2 mps 737 mmHg 43%
19:00 +25°C° 0 mm 1 mps 737 mmHg 49%
20:00 +22°C° 0 mm 1 mps 737 mmHg 55%
21:00 +22°C° 0 mm 1 mps 737 mmHg 57%
22:00 +20°C° 0 mm 2 mps 737 mmHg 58%
23:00 +19°C° 0 mm 2 mps 737 mmHg 60%

16 July, Thursday

Time Temperature Precipitation Wind Pressure Humidity
00:00 +20°C° 0 mm 1 mps 737 mmHg 63%
01:00 +19°C° 0 mm 1 mps 737 mmHg 65%
02:00 +18°C° 0 mm 1 mps 737 mmHg 68%
03:00 +18°C° 0 mm 1 mps 737 mmHg 68%
04:00 +18°C° 0 mm 1 mps 737 mmHg 69%
05:00 +18°C° 0 mm 1 mps 736 mmHg 70%
06:00 +20°C° 0 mm 1 mps 737 mmHg 64%
07:00 +22°C° 0 mm 1 mps 737 mmHg 58%
08:00 +24°C° 0 mm 1 mps 737 mmHg 53%
09:00 +26°C° 0 mm 1 mps 737 mmHg 48%
10:00 +28°C° 0 mm 1 mps 737 mmHg 44%
11:00 +30°C° 0 mm 2 mps 737 mmHg 40%
12:00 +30°C° 0 mm 2 mps 736 mmHg 38%
13:00 +31°C° 0 mm 2 mps 736 mmHg 36%
14:00 +31°C° 0 mm 2 mps 736 mmHg 35%
15:00 +31°C° 0 mm 2 mps 735 mmHg 35%
16:00 +31°C° 0 mm 2 mps 735 mmHg 36%
17:00 +31°C° 0 mm 2 mps 735 mmHg 37%
18:00 +28°C° 0 mm 2 mps 735 mmHg 44%
19:00 +26°C° 0 mm 1 mps 735 mmHg 51%
20:00 +24°C° 0 mm 1 mps 735 mmHg 59%
21:00 +23°C° 0 mm 1 mps 735 mmHg 60%
22:00 +22°C° 0 mm 1 mps 735 mmHg 62%
23:00 +21°C° 0 mm 1 mps 736 mmHg 64%
Show more